Overview Statistics Trail Chart Weather Telemetry Raw packets
 

This is the latest recevied weather packets stored in our database for station/object N5JXS. If no packets are shown the sender has not sent any weather packets the latest 10 day(s).

<< 59 60 61 62 63 64 65 >>
Time Temp. Humidity Pressure Rain* Wind** Luminosity Snow
1788216189 25° C 35% 1026.3 hPa 0 mm - 139 W/m² -
1788215884 25° C 35% 1026.2 hPa 0 mm - 140 W/m² -
1788215581 25° C 36% 1026.6 hPa 0 mm - 138 W/m² -
1788215277 24.44° C 34% 1026.7 hPa 0 mm - 134 W/m² -
1788214972 25° C 34% 1026.5 hPa 0 mm - 126 W/m² -
1788214667 25° C 34% 1026.7 hPa 0 mm - 127 W/m² -
1788214363 25.56° C 34% 1026.8 hPa 0 mm - 146 W/m² -
1788214057 25.56° C 33% 1027 hPa 0 mm - 155 W/m² -
1788213752 25.56° C 33% 1027.3 hPa 0 mm - 123 W/m² -
1788213447 26.11° C 32% 1027 hPa 0 mm - 120 W/m² -
1788213143 25° C 33% 1027 hPa 0 mm - 157 W/m² -
1788212840 25.56° C 32% 1027.1 hPa 0 mm - 255 W/m² -
1788212537 25.56° C 31% 1027 hPa 0 mm - 287 W/m² -
1788212232 25° C 32% 1026.8 hPa 0 mm - 180 W/m² -
1788211928 25° C 31% 1027.2 hPa 0 mm - 241 W/m² -
1788211624 24.44° C 33% 1027.1 hPa 0 mm - 249 W/m² -
1788211321 24.44° C 32% 1027.1 hPa 0 mm - 636 W/m² -
1788211018 23.89° C 35% 1027.5 hPa 0 mm - 166 W/m² -
1788210714 23.89° C 33% 1027.5 hPa 0 mm - 286 W/m² -
1788210414 24.44° C 32% 1027.5 hPa 0 mm - 192 W/m² -
1788210110 24.44° C 32% 1027.5 hPa 0 mm - 241 W/m² -
1788209809 24.44° C 33% 1027.7 hPa 0 mm - 279 W/m² -
1788209505 24.44° C 32% 1027.6 hPa 0 mm - 244 W/m² -
1788209205 23.89° C 34% 1027.6 hPa 0 mm - 281 W/m² -
1788208904 23.89° C 33% 1027.8 hPa 0 mm - 181 W/m² -

* Rain latest hour (hover to see other rain measurements)
** Current wind speed in m/s (hover to see current wind gust speed)